SCP
0 0 0 0 0 0 0 0 0 0 0 0 0 0 0 0 0 0 0 0 0 0 0 0 0 0 0 0 0 0 0 0 0 0 0 0 0 0 0 0 0 0 0 0
0 0 0 0 0 0 0 0 0 0 0 0 0 0 0 0 0 0 0 -0 -0 -0 0 0 0 0 0 0 0 0 0 0 0 0 0 0 0 0 0 0 0 0 0 0
0 0 0 0 0 0 0 0 0 0 0 0 0 0 0 0 0 0 0 -0 -0 -0 -0 0 0 0 0 0 0 0 0 0 0 0 0 0 0 0 0 0 0 0 0 0
0 0 0 0 0 0 0 0 0 0 0 0 0 0 0 0 0 -0 -0 -0 -0 -0 0 0 0 0 0 0 0 0 0 0 0 0 0 0 0 0 0 0 0 0 0 0
0 0 0 0 0 0 0 0 0 0 0 0 0 0 0 0 0 -0 -0 -0 -0 -0 -0 -0 -0 0 0 0 0 0 0 0 0 0 0 0 0 0 0 0 0 0 0 0
0 0 0 0 0 0 0 0 0 0 0 0 0 0 0 0 0 0 0 -0 -0 -0 -0 -0 -0 -0 0 0 0 0 0 0 0 0 0 0 0 0 0 0 0 0 0 0
0 0 0 0 0 0 0 0 0 0 0 0 0 0 0 0 0 0 0 -0 -0 -0 -0 -0 -0 -0 -0 -0 0 0 0 0 0 0 0 0 0 0 0 0 0 0 0 0
0 0 0 0 0 0 0 0 0 0 0 0 0 0 0 0 0 -0 0 -0 -0 0 -0 -0 -0 -0 -0 -0 0 0 0 0 0 0 0 0 0 0 0 0 0 0 0 0
0 0 0 0 0 0 0 0 0 0 0 0 0 0 0 0 -0 0 0 0 -0 0 0 -0 -0 -0 -0 -0 -0 0 0 0 0 0 0 0 0 0 0 0 0 0 0 0
0 0 0 0 0 0 0 0 0 0 0 0 0 0 0 0 -0 -0 0 -0 -0 0 0 0 -0 -0 -0 -0 -0 0 0 0 0 0 0 0 0 0 0 0 0 0 0 0
0 0 0 0 0 0 0 0 0 0 0 0 0 0 0 -0 -0 -0 -0 0 0 0 0 0 0 -0 0 0 0 0 0 0 0 0 0 0 0 0 0 0 0 0 0 0
0 0 0 0 0 0 0 0 0 0 0 0 0 0 0 -0 -0 -0 -0 -0 0 0 0 0 0 0 0 0 0 0 0 0 0 0 0 0 0 0 0 0 0 0 0 0
0 0 0 0 0 0 0 0 0 0 0 0 0 0 0 0 0 -0 -0 -0 -0 -0 0 0 0 0 0 0 0 0 0 0 0 0 0 0 0 0 0 0 0 0 0 0
0 0 0 0 0 0 0 0 0 0 0 0 0 0 0 0 0 0 0 -0 -0 -0 -0 0 0 0 0 0 0 0 0 0 0 0 0 0 0 0 0 0 -0 0 0 0
0 0 0 0 0 0 0 0 0 0 0 0 0 0 0 0 -0 0 0 0 0 -0 -0 0 0 0 0 0 0 0 0 0 0 0 0 0 -0 0 0 0 0 0 0 0
0 0 0 0 0 0 0 0 0 0 0 0 0 0 0 0 0 -0 -0 -0 0 0 0 0 0 0 0 0 0 0 0 -0 0 0 0 -0 -0 0 0 0 0 0 0 0
0 0 0 0 0 0 0 0 0 0 0 0 0 0 0 0 0 0 0 0 0 0 0 0 0 0 0 0 0 -0 0 0 0 0 0 0 0 0 0 0 0 0 0 0
0 0 0 0 0 0 0 0 0 0 0 0 -0 -0 -0 0 0 0 0 0 0 0 0 0 0 0 0 0 -0 0 0 0 0 -0 0 0 0 -0 -0 0 0 0 0 -0
0 0 0 0 0 0 0 0 0 0 -0 0 0 -0 -0 -0 -0 -0 0 0 0 0 0 0 0 0 0 0 0 0 0 0 0 0 0 0 0 -0 0 0 0 0 0 -0
0 0 0 0 0 0 0 0 0 0 -0 0 0 0 0 0 -0 -0 0 0 0 0 0 0 0 0 0 0 0 0 0 0 0 0 0 0 -0 -0 0 -0 -0 0 -0 -0
0 0 0 0 0 0 0 0 0 0 0 0 0 0 0 0 0 0 0 -0 0 0 0 0 0 0 0 0 0 0 0 0 0 0 0 0 0 -0 -0 -0 0 -0 -0 0
0 0 0 0 0 0 0 0 0 0 0 0 0 0 0 0 0 0 0 0 0 0 0 0 0 0 0 0 0 0 0 0 0 0 0 0 -0 -0 0 0 0 -0 0 0
0 0 0 -0 -0 0 0 0 0 0 0 0 0 0 0 0 0 0 0 0 0 0 0 -0 -0 0 -0 -0 -0 0 0 0 -0 -0 0 0 -0 -0 -0 0 0 0 -0 -0
0 0 0 0 -0 -0 -0 0 0 0 0 0 0 0 0 0 0 0 0 0 0 -0 -0 -0 0 0 0 -0 -0 -0 0 0 0 0 0 0 0 0 -0 0 0 0 0 0
0 0 0 -0 -0 0 -0 -0 -0 0 0 0 0 0 -0 0 0 0 0 0 -0 -0 -0 -0 -0 -0 -0 0 -0 0 0 0 0 0 0 0 0 0 0 0 0 0 0 0
0 0 0 -0 -0 0 -0 0 -0 -0 -0 -0 -0 -0 0 -0 -0 -0 -0 -0 -0 -0 -0 -0 -0 -0 -0 0 -0 0 0 0 0 0 0 0 0 0 0 0 0 0 0 0
Wind_Speed_500mb
8 9 4 8 6 14 14 18 27 20 12 9 6 6 8 15 21 33 38 45 50 59 47 38 29 26 26 13 9 16 17 18 26 29 32 33 33 33 34 33 33 40 44 38
8 4 3 9 13 14 19 25 15 14 8 8 4 10 7 5 10 25 33 41 49 62 60 44 38 32 24 25 9 2 11 12 19 29 33 31 33 34 33 30 32 34 42 40
5 2 7 10 13 16 15 9 7 15 22 6 5 11 4 5 7 29 30 36 44 53 63 58 48 40 30 23 20 16 7 10 13 21 28 33 36 35 31 28 30 32 37 45
7 7 7 17 9 9 10 8 21 32 5 5 5 8 9 2 8 23 39 42 48 60 62 54 52 43 38 33 17 16 10 9 12 19 25 32 36 33 29 31 27 30 35 43
3 7 9 7 10 3 16 26 29 14 5 5 5 4 10 6 10 31 36 44 48 55 56 59 54 49 40 34 24 16 11 11 11 14 23 31 32 30 32 27 26 23 29 40
8 6 7 8 14 1 19 9 2 6 3 4 7 6 8 3 9 23 34 41 45 52 57 56 48 47 43 35 28 16 14 11 8 11 16 21 16 15 18 21 23 24 32 46
11 4 2 4 11 1 17 11 8 11 8 8 2 3 11 8 7 7 26 49 45 51 54 57 58 55 49 42 34 24 18 18 11 10 6 6 10 12 16 19 22 19 36 47
6 13 5 7 6 7 9 9 6 8 8 11 9 10 8 11 14 26 39 36 40 51 54 55 53 51 47 42 38 31 23 16 15 7 3 7 13 15 15 19 20 16 32 32
5 12 3 2 1 3 5 9 4 2 6 5 5 2 8 9 15 25 36 34 42 51 55 52 50 48 44 41 39 35 28 21 14 11 7 2 7 8 12 17 21 26 40 48
7 9 5 5 2 7 8 2 4 2 10 10 11 9 6 12 25 24 25 34 41 49 51 49 47 46 42 36 33 29 28 26 23 17 13 13 12 14 19 23 25 27 34 46
8 6 7 4 3 8 4 5 3 1 3 3 9 12 8 7 14 17 20 32 37 43 43 41 39 36 33 30 30 29 27 24 25 22 23 22 26 27 36 37 41 41 48 50
9 8 9 13 9 5 5 9 7 6 8 4 5 12 7 10 13 12 21 27 30 31 33 32 31 31 31 30 29 30 27 28 31 30 28 36 38 38 44 55 66 75 79 78
11 1 8 15 3 0 4 6 6 5 5 7 2 12 1 4 9 17 17 23 27 26 28 25 27 29 31 29 29 30 30 32 35 39 46 55 61 62 69 73 74 75 78 81
13 6 12 10 14 2 4 6 8 7 5 4 11 22 19 15 12 21 22 20 21 24 23 23 23 26 29 32 32 31 32 34 41 51 61 69 76 80 86 85 83 81 80 82
7 5 6 10 9 2 8 9 8 12 10 8 7 9 31 17 13 21 23 26 21 22 20 18 20 24 27 29 31 36 41 45 51 66 77 82 82 81 82 80 81 76 77 77
2 3 1 8 4 7 10 9 11 8 6 14 6 15 7 19 25 35 38 37 35 24 18 18 19 21 26 30 32 41 53 67 74 78 81 79 77 80 79 81 78 75 74 72
7 6 4 10 5 9 11 14 10 3 5 11 4 11 7 10 15 13 15 18 22 24 19 19 25 26 28 34 38 46 53 63 69 74 75 75 73 69 70 70 66 66 65 61
10 9 5 8 8 8 12 4 5 10 12 13 5 10 11 7 9 10 5 5 13 20 14 12 22 32 38 42 45 50 55 60 64 67 66 64 63 60 61 58 57 56 53 52
4 7 3 2 5 13 4 9 12 12 11 20 16 5 9 3 10 10 13 13 17 23 28 29 29 29 33 41 46 48 53 54 55 58 58 56 53 54 52 48 48 48 46 46
10 9 6 5 3 8 13 7 14 6 8 23 30 22 21 14 3 8 21 22 24 27 29 33 33 36 37 42 42 43 50 49 50 50 49 46 43 41 40 40 39 39 37 38
6 4 7 7 8 17 11 13 19 9 11 40 53 54 50 13 16 24 32 34 36 38 37 36 34 34 33 35 33 37 40 40 42 41 40 38 36 33 32 32 31 30 29 27
14 15 8 6 3 13 28 16 16 9 7 61 58 58 60 31 23 40 37 37 35 33 33 34 31 32 32 31 27 30 32 34 34 33 31 29 29 28 27 24 25 24 22 20
4 12 9 17 12 6 68 8 30 13 31 58 62 62 53 41 45 45 43 40 37 33 32 32 30 29 30 30 28 24 27 28 29 29 28 27 25 23 22 19 17 16 17 14
9 11 5 6 7 19 43 52 30 22 25 52 56 62 60 47 49 47 45 45 44 42 41 40 40 38 34 34 33 31 29 29 27 23 21 21 19 16 15 12 10 8 7 6
6 15 9 12 16 9 37 59 50 33 34 49 56 60 60 54 55 52 53 50 46 44 45 44 43 41 38 37 35 33 31 28 25 22 17 13 12 9 6 5 1 0 2 2
21 15 11 12 17 7 4 25 59 57 47 55 63 65 63 56 55 57 55 52 51 52 50 50 48 46 43 40 38 36 33 29 26 24 21 18 15 12 8 8 9 9 8 4
Wind_Direction_500mb
17 39 319 285 225 245 265 264 271 273 275 303 247 254 317 343 25 7 357 345 337 335 340 348 358 355 351 341 249 241 241 227 226 232 243 258 266 263 258 256 261 247 245 247
17 262 221 283 277 270 270 279 279 274 244 301 280 256 226 297 52 20 354 343 337 340 346 357 5 7 12 9 3 286 254 236 223 233 250 266 277 270 263 263 260 252 245 246
178 337 336 311 293 320 295 245 263 290 314 251 292 294 184 202 180 0 357 344 342 343 343 351 359 1 10 4 356 338 294 258 240 242 257 270 279 272 265 265 257 248 242 234
243 344 316 303 280 26 309 242 298 307 294 254 106 287 218 257 283 4 354 351 345 346 350 352 354 359 4 1 345 309 302 285 265 258 265 277 278 270 264 267 257 247 240 231
289 5 329 334 287 144 258 307 298 278 190 21 183 43 271 5 319 341 349 347 344 347 348 351 356 354 356 358 357 343 335 317 293 283 283 281 271 264 263 265 258 262 234 236
263 292 169 248 309 200 301 329 310 43 86 337 237 144 274 327 294 323 335 341 347 347 349 353 357 358 2 1 358 358 356 352 331 305 290 283 260 242 255 261 256 247 244 203
335 229 324 356 315 145 23 359 356 359 7 240 215 208 262 192 255 281 318 329 346 350 353 353 359 1 2 5 4 3 1 6 7 338 270 274 247 226 238 241 252 257 223 180
46 323 47 332 152 209 27 90 110 280 325 291 274 235 290 199 215 353 342 340 346 359 359 359 360 360 2 4 6 8 8 12 23 9 18 255 225 221 222 225 234 218 198 195
74 278 107 305 306 149 313 45 168 236 225 293 253 261 109 216 324 340 342 349 350 356 360 0 1 2 4 9 10 12 18 23 28 31 33 103 198 178 199 194 178 166 175 177
188 318 191 203 303 32 86 47 63 33 350 311 306 290 251 319 327 330 340 347 350 356 1 3 4 4 4 8 12 16 23 25 32 44 75 97 111 139 155 164 140 147 152 150
132 117 285 38 358 172 6 48 39 216 185 245 306 282 193 218 296 306 319 343 351 357 1 4 6 8 7 9 21 24 31 44 57 67 87 106 111 120 127 131 131 138 138 142
190 150 276 239 258 220 119 151 149 112 298 266 288 276 169 196 252 309 339 348 354 359 8 11 14 18 23 26 34 43 50 63 73 85 102 112 117 122 123 122 122 126 125 122
178 191 338 343 1 35 125 184 178 144 58 225 243 280 183 282 332 6 353 358 4 6 21 27 31 41 48 48 55 64 71 79 93 107 114 115 115 115 114 117 117 116 114 110
137 139 176 200 231 149 317 201 174 132 121 245 227 290 306 333 348 340 346 6 29 29 29 41 50 57 66 72 74 81 87 99 111 112 112 112 112 111 110 111 107 103 100 97
123 197 188 247 238 246 244 221 199 177 206 178 256 260 293 321 322 325 358 359 24 43 48 50 56 68 75 85 94 98 102 104 110 108 105 102 102 99 99 97 99 101 102 102
54 258 111 289 351 259 278 235 199 200 202 274 340 287 214 313 340 357 356 1 4 18 54 73 79 81 87 92 101 109 113 114 112 108 105 103 100 102 106 111 108 107 104 100
122 123 57 273 327 323 326 218 194 197 212 155 205 243 351 325 337 337 351 10 13 5 23 62 77 82 90 100 108 113 113 111 112 109 106 107 107 108 110 110 107 103 101 99
135 126 142 284 4 11 244 292 150 191 219 199 300 255 234 257 307 279 209 142 114 95 72 79 103 114 116 119 120 116 111 108 106 106 106 105 107 108 108 107 104 101 99 98
120 130 123 74 271 288 300 221 174 166 280 177 183 218 222 202 308 264 191 156 141 129 119 111 105 104 112 116 116 114 112 111 109 107 106 107 110 110 107 103 102 101 98 92
118 102 114 152 139 206 238 234 196 141 313 182 167 171 164 156 44 255 179 154 137 125 122 116 111 112 114 111 110 114 111 110 108 109 110 108 105 104 104 103 101 96 90 86
172 171 178 184 245 285 223 170 157 79 236 173 182 173 163 180 210 164 169 155 142 134 130 127 126 125 126 121 122 119 115 116 115 115 116 117 115 113 110 107 101 96 91 90
170 156 191 156 202 291 157 121 163 207 162 176 179 177 183 188 178 172 167 158 145 138 137 135 139 142 138 135 136 132 132 129 126 124 123 124 127 128 122 114 103 97 89 79
275 190 178 188 213 210 186 235 190 180 178 181 179 182 183 184 177 177 171 167 158 155 155 154 161 164 159 154 151 152 145 142 143 145 148 147 142 131 116 102 88 77 74 62
243 179 215 49 272 225 213 217 216 211 197 187 184 181 186 185 182 182 181 178 174 172 173 175 178 181 179 175 171 170 170 166 155 149 149 145 139 129 118 111 107 90 67 40
195 143 190 263 268 272 238 225 220 199 192 190 190 191 190 189 188 191 188 188 185 183 183 186 189 190 188 187 183 182 184 180 167 164 168 161 148 146 151 149 132 8 294 337
192 188 174 223 217 183 241 231 214 212 199 192 192 191 196 197 194 193 196 194 193 192 192 194 196 197 198 197 195 193 194 193 187 185 191 192 190 195 207 222 235 234 226 228
Wind_Speed_850mb
8 9 4 8 6 14 14 18 27 20 12 9 6 6 8 15 21 33 38 45 50 59 47 38 29 26 26 13 9 16 17 18 26 29 32 33 33 33 34 33 33 40 44 38
8 4 3 9 13 14 19 25 15 14 8 8 4 10 7 5 10 25 33 41 49 62 60 44 38 32 24 25 9 2 11 12 19 29 33 31 33 34 33 30 32 34 42 40
5 2 7 10 13 16 15 9 7 15 22 6 5 11 4 5 7 29 30 36 44 53 63 58 48 40 30 23 20 16 7 10 13 21 28 33 36 35 31 28 30 32 37 45
7 7 7 17 9 9 10 8 21 32 5 5 5 8 9 2 8 23 39 42 48 60 62 54 52 43 38 33 17 16 10 9 12 19 25 32 36 33 29 31 27 30 35 43
3 7 9 7 10 3 16 26 29 14 5 5 5 4 10 6 10 31 36 44 48 55 56 59 54 49 40 34 24 16 11 11 11 14 23 31 32 30 32 27 26 23 29 40
8 6 7 8 14 1 19 9 2 6 3 4 7 6 8 3 9 23 34 41 45 52 57 56 48 47 43 35 28 16 14 11 8 11 16 21 16 15 18 21 23 24 32 46
11 4 2 4 11 1 17 11 8 11 8 8 2 3 11 8 7 7 26 49 45 51 54 57 58 55 49 42 34 24 18 18 11 10 6 6 10 12 16 19 22 19 36 47
6 13 5 7 6 7 9 9 6 8 8 11 9 10 8 11 14 26 39 36 40 51 54 55 53 51 47 42 38 31 23 16 15 7 3 7 13 15 15 19 20 16 32 32
5 12 3 2 1 3 5 9 4 2 6 5 5 2 8 9 15 25 36 34 42 51 55 52 50 48 44 41 39 35 28 21 14 11 7 2 7 8 12 17 21 26 40 48
7 9 5 5 2 7 8 2 4 2 10 10 11 9 6 12 25 24 25 34 41 49 51 49 47 46 42 36 33 29 28 26 23 17 13 13 12 14 19 23 25 27 34 46
8 6 7 4 3 8 4 5 3 1 3 3 9 12 8 7 14 17 20 32 37 43 43 41 39 36 33 30 30 29 27 24 25 22 23 22 26 27 36 37 41 41 48 50
9 8 9 13 9 5 5 9 7 6 8 4 5 12 7 10 13 12 21 27 30 31 33 32 31 31 31 30 29 30 27 28 31 30 28 36 38 38 44 55 66 75 79 78
11 1 8 15 3 0 4 6 6 5 5 7 2 12 1 4 9 17 17 23 27 26 28 25 27 29 31 29 29 30 30 32 35 39 46 55 61 62 69 73 74 75 78 81
13 6 12 10 14 2 4 6 8 7 5 4 11 22 19 15 12 21 22 20 21 24 23 23 23 26 29 32 32 31 32 34 41 51 61 69 76 80 86 85 83 81 80 82
7 5 6 10 9 2 8 9 8 12 10 8 7 9 31 17 13 21 23 26 21 22 20 18 20 24 27 29 31 36 41 45 51 66 77 82 82 81 82 80 81 76 77 77
2 3 1 8 4 7 10 9 11 8 6 14 6 15 7 19 25 35 38 37 35 24 18 18 19 21 26 30 32 41 53 67 74 78 81 79 77 80 79 81 78 75 74 72
7 6 4 10 5 9 11 14 10 3 5 11 4 11 7 10 15 13 15 18 22 24 19 19 25 26 28 34 38 46 53 63 69 74 75 75 73 69 70 70 66 66 65 61
10 9 5 8 8 8 12 4 5 10 12 13 5 10 11 7 9 10 5 5 13 20 14 12 22 32 38 42 45 50 55 60 64 67 66 64 63 60 61 58 57 56 53 52
4 7 3 2 5 13 4 9 12 12 11 20 16 5 9 3 10 10 13 13 17 23 28 29 29 29 33 41 46 48 53 54 55 58 58 56 53 54 52 48 48 48 46 46
10 9 6 5 3 8 13 7 14 6 8 23 30 22 21 14 3 8 21 22 24 27 29 33 33 36 37 42 42 43 50 49 50 50 49 46 43 41 40 40 39 39 37 38
6 4 7 7 8 17 11 13 19 9 11 40 53 54 50 13 16 24 32 34 36 38 37 36 34 34 33 35 33 37 40 40 42 41 40 38 36 33 32 32 31 30 29 27
14 15 8 6 3 13 28 16 16 9 7 61 58 58 60 31 23 40 37 37 35 33 33 34 31 32 32 31 27 30 32 34 34 33 31 29 29 28 27 24 25 24 22 20
4 12 9 17 12 6 68 8 30 13 31 58 62 62 53 41 45 45 43 40 37 33 32 32 30 29 30 30 28 24 27 28 29 29 28 27 25 23 22 19 17 16 17 14
9 11 5 6 7 19 43 52 30 22 25 52 56 62 60 47 49 47 45 45 44 42 41 40 40 38 34 34 33 31 29 29 27 23 21 21 19 16 15 12 10 8 7 6
6 15 9 12 16 9 37 59 50 33 34 49 56 60 60 54 55 52 53 50 46 44 45 44 43 41 38 37 35 33 31 28 25 22 17 13 12 9 6 5 1 0 2 2
21 15 11 12 17 7 4 25 59 57 47 55 63 65 63 56 55 57 55 52 51 52 50 50 48 46 43 40 38 36 33 29 26 24 21 18 15 12 8 8 9 9 8 4
Wind_Direction_850mb
17 39 319 285 225 245 265 264 271 273 275 303 247 254 317 343 25 7 357 345 337 335 340 348 358 355 351 341 249 241 241 227 226 232 243 258 266 263 258 256 261 247 245 247
17 262 221 283 277 270 270 279 279 274 244 301 280 256 226 297 52 20 354 343 337 340 346 357 5 7 12 9 3 286 254 236 223 233 250 266 277 270 263 263 260 252 245 246
178 337 336 311 293 320 295 245 263 290 314 251 292 294 184 202 180 0 357 344 342 343 343 351 359 1 10 4 356 338 294 258 240 242 257 270 279 272 265 265 257 248 242 234
243 344 316 303 280 26 309 242 298 307 294 254 106 287 218 257 283 4 354 351 345 346 350 352 354 359 4 1 345 309 302 285 265 258 265 277 278 270 264 267 257 247 240 231
289 5 329 334 287 144 258 307 298 278 190 21 183 43 271 5 319 341 349 347 344 347 348 351 356 354 356 358 357 343 335 317 293 283 283 281 271 264 263 265 258 262 234 236
263 292 169 248 309 200 301 329 310 43 86 337 237 144 274 327 294 323 335 341 347 347 349 353 357 358 2 1 358 358 356 352 331 305 290 283 260 242 255 261 256 247 244 203
335 229 324 356 315 145 23 359 356 359 7 240 215 208 262 192 255 281 318 329 346 350 353 353 359 1 2 5 4 3 1 6 7 338 270 274 247 226 238 241 252 257 223 180
46 323 47 332 152 209 27 90 110 280 325 291 274 235 290 199 215 353 342 340 346 359 359 359 360 360 2 4 6 8 8 12 23 9 18 255 225 221 222 225 234 218 198 195
74 278 107 305 306 149 313 45 168 236 225 293 253 261 109 216 324 340 342 349 350 356 360 0 1 2 4 9 10 12 18 23 28 31 33 103 198 178 199 194 178 166 175 177
188 318 191 203 303 32 86 47 63 33 350 311 306 290 251 319 327 330 340 347 350 356 1 3 4 4 4 8 12 16 23 25 32 44 75 97 111 139 155 164 140 147 152 150
132 117 285 38 358 172 6 48 39 216 185 245 306 282 193 218 296 306 319 343 351 357 1 4 6 8 7 9 21 24 31 44 57 67 87 106 111 120 127 131 131 138 138 142
190 150 276 239 258 220 119 151 149 112 298 266 288 276 169 196 252 309 339 348 354 359 8 11 14 18 23 26 34 43 50 63 73 85 102 112 117 122 123 122 122 126 125 122
178 191 338 343 1 35 125 184 178 144 58 225 243 280 183 282 332 6 353 358 4 6 21 27 31 41 48 48 55 64 71 79 93 107 114 115 115 115 114 117 117 116 114 110
137 139 176 200 231 149 317 201 174 132 121 245 227 290 306 333 348 340 346 6 29 29 29 41 50 57 66 72 74 81 87 99 111 112 112 112 112 111 110 111 107 103 100 97
123 197 188 247 238 246 244 221 199 177 206 178 256 260 293 321 322 325 358 359 24 43 48 50 56 68 75 85 94 98 102 104 110 108 105 102 102 99 99 97 99 101 102 102
54 258 111 289 351 259 278 235 199 200 202 274 340 287 214 313 340 357 356 1 4 18 54 73 79 81 87 92 101 109 113 114 112 108 105 103 100 102 106 111 108 107 104 100
122 123 57 273 327 323 326 218 194 197 212 155 205 243 351 325 337 337 351 10 13 5 23 62 77 82 90 100 108 113 113 111 112 109 106 107 107 108 110 110 107 103 101 99
135 126 142 284 4 11 244 292 150 191 219 199 300 255 234 257 307 279 209 142 114 95 72 79 103 114 116 119 120 116 111 108 106 106 106 105 107 108 108 107 104 101 99 98
120 130 123 74 271 288 300 221 174 166 280 177 183 218 222 202 308 264 191 156 141 129 119 111 105 104 112 116 116 114 112 111 109 107 106 107 110 110 107 103 102 101 98 92
118 102 114 152 139 206 238 234 196 141 313 182 167 171 164 156 44 255 179 154 137 125 122 116 111 112 114 111 110 114 111 110 108 109 110 108 105 104 104 103 101 96 90 86
172 171 178 184 245 285 223 170 157 79 236 173 182 173 163 180 210 164 169 155 142 134 130 127 126 125 126 121 122 119 115 116 115 115 116 117 115 113 110 107 101 96 91 90
170 156 191 156 202 291 157 121 163 207 162 176 179 177 183 188 178 172 167 158 145 138 137 135 139 142 138 135 136 132 132 129 126 124 123 124 127 128 122 114 103 97 89 79
275 190 178 188 213 210 186 235 190 180 178 181 179 182 183 184 177 177 171 167 158 155 155 154 161 164 159 154 151 152 145 142 143 145 148 147 142 131 116 102 88 77 74 62
243 179 215 49 272 225 213 217 216 211 197 187 184 181 186 185 182 182 181 178 174 172 173 175 178 181 179 175 171 170 170 166 155 149 149 145 139 129 118 111 107 90 67 40
195 143 190 263 268 272 238 225 220 199 192 190 190 191 190 189 188 191 188 188 185 183 183 186 189 190 188 187 183 182 184 180 167 164 168 161 148 146 151 149 132 8 294 337
192 188 174 223 217 183 241 231 214 212 199 192 192 191 196 197 194 193 196 194 193 192 192 194 196 197 198 197 195 193 194 193 187 185 191 192 190 195 207 222 235 234 226 228